,,,PA_Meas_PMT16A,,PR_Meas_QMR101_102,,RH_Meas_QMH101,,SR_Meas_QMS101,,TA_Meas_QMH101,,GenWind,,GenWind,
date,time,status,PA,status,PR,status,RH,status,SR,status,TA,status,DirAvg,status,SpdAvg,
2012-08-28, 00:00:05,VALID,1010.89,VALID,0,VALID,104,VALID,0.112112,VALID,24.3742,VALID,147,VALID,0.978906,
2012-08-28, 00:01:05,VALID,1010.89,VALID,0,VALID,104,VALID,0.112112,VALID,24.3937,VALID,155,VALID,0.679297,
2012-08-28, 00:02:05,VALID,1010.88,VALID,0,VALID,104,VALID,0.112112,VALID,24.3937,VALID,140,VALID,0.961328,
2012-08-28, 00:03:05,VALID,1010.87,VALID,0,VALID,104,VALID,0.112112,VALID,24.3956,VALID,122,VALID,0.848828,
2012-08-28, 00:04:05,VALID,1010.85,VALID,0,VALID,104,VALID,0.112112,VALID,24.3742,VALID,132,VALID,0.674609,
2012-08-28, 00:05:05,VALID,1010.84,VALID,0,VALID,104,VALID,0.112112,VALID,24.3742,VALID,138,VALID,1.13281,
2012-08-28, 00:06:05,VALID,1010.8,VALID,0,VALID,104,VALID,0.112112,VALID,24.3742,VALID,136,VALID,0.837109,
2012-08-28, 00:07:05,VALID,1010.81,VALID,0,VALID,104,VALID,0.112112,VALID,24.3742,VALID,135,VALID,0.525,
2012-08-28, 00:08:05,VALID,1010.79,VALID,0,VALID,104,VALID,0.112112,VALID,24.3761,VALID,143,VALID,0.374219,
2012-08-28, 00:09:05,VALID,1010.78,VALID,0,VALID,104,VALID,0.112112,VALID,24.3956,VALID,177,VALID,0.913672,
2012-08-28, 00:10:05,VALID,1010.77,VALID,0,VALID,104,VALID,0,VALID,24.3956,VALID,163,VALID,1.07969,
2012-08-28, 00:11:05,VALID,1010.75,VALID,0,VALID,104,VALID,0,VALID,24.3956,VALID,165,VALID,1.5375,
2012-08-28, 00:12:05,VALID,1010.77,VALID,0,VALID,104,VALID,0.112112,VALID,24.4132,VALID,148,VALID,1.32773,
2012-08-28, 00:13:05,VALID,1010.76,VALID,0,VALID,104,VALID,0.112112,VALID,24.454,VALID,163,VALID,0.875391,
2012-08-28, 00:14:05,VALID,1010.76,VALID,0,VALID,104,VALID,0,VALID,24.4327,VALID,180,VALID,0.734375,
2012-08-28, 00:15:05,VALID,1010.77,VALID,0,VALID,104,VALID,0.112112,VALID,24.4327,VALID,176,VALID,1.16875,
2012-08-28, 00:16:05,VALID,1010.75,VALID,0,VALID,104,VALID,0,VALID,24.454,VALID,176,VALID,1.62656,
2012-08-28, 00:17:05,VALID,1010.74,VALID,0,VALID,104,VALID,0,VALID,24.4735,VALID,187,VALID,0.853125,
2012-08-28, 00:18:05,VALID,1010.72,VALID,0,VALID,104,VALID,0,VALID,24.493,VALID,162,VALID,0.954297,
2012-08-28, 00:19:05,VALID,1010.71,VALID,0,VALID,104,VALID,0,VALID,24.493,VALID,185,VALID,0.985937,
2012-08-28, 00:20:05,VALID,1010.68,VALID,0,VALID,104,VALID,0,VALID,24.493,VALID,165,VALID,1.84766,
2012-08-28, 00:21:05,VALID,1010.67,VALID,0,VALID,104,VALID,0,VALID,24.493,VALID,198,VALID,0.741016,
2012-08-28, 00:22:05,VALID,1010.64,VALID,0,VALID,104,VALID,0,VALID,24.5125,VALID,155,VALID,1.73789,
2012-08-28, 00:23:05,VALID,1010.65,VALID,0,VALID,104,VALID,0,VALID,24.5125,VALID,179,VALID,1.74102,
2012-08-28, 00:24:05,VALID,1010.61,VALID,0,VALID,104,VALID,0,VALID,24.5125,VALID,169,VALID,0.880859,
2012-08-28, 00:25:05,VALID,1010.59,VALID,0,VALID,104,VALID,0,VALID,24.5106,VALID,135,VALID,1.75977,
2012-08-28, 00:26:05,VALID,1010.6,VALID,0,VALID,104,VALID,0,VALID,24.532,VALID,167,VALID,1.28555,
2012-08-28, 00:27:05,VALID,1010.55,VALID,0,VALID,104,VALID,0,VALID,24.532,VALID,143,VALID,2.90156,
2012-08-28, 00:28:05,VALID,1010.56,VALID,0,VALID,104,VALID,0,VALID,24.5301,VALID,164,VALID,1.33711,
2012-08-28, 00:29:05,VALID,1010.56,VALID,0,VALID,104,VALID,0,VALID,24.571,VALID,170,VALID,1.31992,
2012-08-28, 00:30:05,VALID,1010.56,VALID,0,VALID,104,VALID,0,VALID,24.5515,VALID,163,VALID,1.54492,
2012-08-28, 00:31:05,VALID,1010.55,VALID,0,VALID,104,VALID,0,VALID,24.5496,VALID,166,VALID,0.924609,
2012-08-28, 00:32:05,VALID,1010.54,VALID,0,VALID,104,VALID,0,VALID,24.571,VALID,145,VALID,0.715234,
2012-08-28, 00:33:05,VALID,1010.52,VALID,0,VALID,104,VALID,0,VALID,24.5515,VALID,170,VALID,0.547266,
2012-08-28, 00:34:05,VALID,1010.55,VALID,0,VALID,104,VALID,0,VALID,24.532,VALID,142,VALID,2.04023,
2012-08-28, 00:35:05,VALID,1010.55,VALID,0,VALID,104,VALID,0,VALID,24.5515,VALID,165,VALID,1.68125,
2012-08-28, 00:36:05,VALID,1010.55,VALID,0,VALID,104,VALID,0,VALID,24.571,VALID,160,VALID,1.88594,
2012-08-28, 00:37:05,VALID,1010.58,VALID,0,VALID,104,VALID,0,VALID,24.571,VALID,151,VALID,1.1332,
2012-08-28, 00:38:05,VALID,1010.57,VALID,0,VALID,104,VALID,0,VALID,24.5496,VALID,178,VALID,1.14492,
2012-08-28, 00:39:05,VALID,1010.58,VALID,0,VALID,104,VALID,0,VALID,24.571,VALID,154,VALID,1.26484,
2012-08-28, 00:40:05,VALID,1010.6,VALID,0,VALID,104,VALID,0,VALID,24.5905,VALID,132,VALID,1.18164,
2012-08-28, 00:41:05,VALID,1010.6,VALID,0,VALID,104,VALID,0,VALID,24.5905,VALID,159,VALID,0.980078,
2012-08-28, 00:42:05,VALID,1010.6,VALID,0,VALID,104,VALID,0,VALID,24.6099,VALID,149,VALID,1.18633,
2012-08-28, 00:43:05,VALID,1010.6,VALID,0,VALID,104,VALID,0,VALID,24.6099,VALID,194,VALID,2.64023,
2012-08-28, 00:44:05,VALID,1010.61,VALID,0,VALID,104,VALID,0,VALID,24.6508,VALID,160,VALID,1.71953,
2012-08-28, 00:45:05,VALID,1010.57,VALID,0,VALID,104,VALID,0,VALID,24.6489,VALID,157,VALID,1.44883,
2012-08-28, 00:46:05,VALID,1010.56,VALID,0,VALID,104,VALID,0,VALID,24.6294,VALID,159,VALID,1.49063,
2012-08-28, 00:47:05,VALID,1010.54,VALID,0,VALID,104,VALID,0,VALID,24.6294,VALID,143,VALID,1.85117,
2012-08-28, 00:48:05,VALID,1010.52,VALID,0,VALID,104,VALID,0,VALID,24.6294,VALID,146,VALID,1.30508,
2012-08-28, 00:49:05,VALID,1010.53,VALID,0,VALID,104,VALID,0,VALID,24.6294,VALID,146,VALID,0.650391,
2012-08-28, 00:50:05,VALID,1010.51,VALID,0,VALID,104,VALID,0,VALID,24.6294,VALID,166,VALID,0.970703,
2012-08-28, 00:51:05,VALID,1010.51,VALID,0,VALID,104,VALID,0,VALID,24.6099,VALID,134,VALID,2.29766,
2012-08-28, 00:52:05,VALID,1010.53,VALID,0,VALID,104,VALID,0,VALID,24.6099,VALID,132,VALID,1.38359,
2012-08-28, 00:53:05,VALID,1010.53,VALID,0,VALID,104,VALID,0,VALID,24.6099,VALID,164,VALID,0.523047,
2012-08-28, 00:54:05,VALID,1010.52,VALID,0,VALID,104,VALID,0,VALID,24.6118,VALID,140,VALID,1.525,
2012-08-28, 00:55:05,VALID,1010.52,VALID,0,VALID,104,VALID,0,VALID,24.5905,VALID,153,VALID,1.72852,
2012-08-28, 00:56:05,VALID,1010.53,VALID,0,VALID,104,VALID,0,VALID,24.5496,VALID,168,VALID,1.39414,
2012-08-28, 00:57:05,VALID,1010.52,VALID,0,VALID,104,VALID,0,VALID,24.5691,VALID,157,VALID,0.736328,
2012-08-28, 00:58:05,VALID,1010.52,VALID,0,VALID,104,VALID,0,VALID,24.5496,VALID,136,VALID,0.798047,
2012-08-28, 00:59:05,VALID,1010.53,VALID,0,VALID,104,VALID,0,VALID,24.5515,VALID,150,VALID,1.32969,
2012-08-28, 01:00:05,VALID,1010.52,VALID,0,VALID,104,VALID,0,VALID,24.571,VALID,144,VALID,0.835547,
2012-08-28, 01:01:05,VALID,1010.51,VALID,0,VALID,104,VALID,0,VALID,24.571,VALID,140,VALID,0.897266,
2012-08-28, 01:02:05,VALID,1010.52,VALID,0,VALID,104,VALID,0,VALID,24.5496,VALID,161,VALID,1.63437,
2012-08-28, 01:03:05,VALID,1010.51,VALID,0,VALID,104,VALID,0,VALID,24.571,VALID,127,VALID,1.4957,
2012-08-28, 01:04:05,VALID,1010.48,VALID,0,VALID,104,VALID,0,VALID,24.571,VALID,145,VALID,1.60859,
2012-08-28, 01:05:05,VALID,1010.49,VALID,0,VALID,104,VALID,0,VALID,24.5728,VALID,103,VALID,0.728516,
2012-08-28, 01:06:05,VALID,1010.45,VALID,0,VALID,104,VALID,0,VALID,24.5515,VALID,111,VALID,0.822656,
2012-08-28, 01:07:05,VALID,1010.45,VALID,0,VALID,104,VALID,0,VALID,24.532,VALID,101,VALID,1.15273,
2012-08-28, 01:08:05,VALID,1010.39,VALID,0,VALID,104,VALID,0,VALID,24.532,VALID,130,VALID,0.775,
2012-08-28, 01:09:05,VALID,1010.39,VALID,0,VALID,104,VALID,0,VALID,24.5106,VALID,121,VALID,0.764453,
2012-08-28, 01:10:05,VALID,1010.35,VALID,0,VALID,104,VALID,0,VALID,24.5338,VALID,120,VALID,1.03828,
2012-08-28, 01:11:05,VALID,1010.36,VALID,0,VALID,104,VALID,0,VALID,24.5125,VALID,109,VALID,0.881641,
2012-08-28, 01:12:05,VALID,1010.34,VALID,0,VALID,104,VALID,0,VALID,24.5125,VALID,129,VALID,0.955078,
2012-08-28, 01:13:05,VALID,1010.37,VALID,0,VALID,104,VALID,0,VALID,24.493,VALID,95,VALID,0.515234,
2012-08-28, 01:14:05,VALID,1010.32,VALID,0,VALID,104,VALID,0,VALID,24.493,VALID,93,VALID,1.025,
2012-08-28, 01:15:05,VALID,1010.35,VALID,0,VALID,104,VALID,0,VALID,24.4735,VALID,103,VALID,0.633984,
2012-08-28, 01:16:05,VALID,1010.36,VALID,0,VALID,104,VALID,0,VALID,24.4735,VALID,93,VALID,0.325781,
2012-08-28, 01:17:05,VALID,1010.35,VALID,0,VALID,104,VALID,0,VALID,24.4735,VALID,92,VALID,0.523438,
2012-08-28, 01:18:05,VALID,1010.31,VALID,0,VALID,104,VALID,0,VALID,24.4345,VALID,116,VALID,1.20586,
2012-08-28, 01:19:05,VALID,1010.33,VALID,0,VALID,104,VALID,0,VALID,24.454,VALID,105,VALID,0.816406,
2012-08-28, 01:20:05,VALID,1010.3,VALID,0,VALID,104,VALID,0,VALID,24.4132,VALID,100,VALID,0.597266,
2012-08-28, 01:21:05,VALID,1010.3,VALID,0,VALID,104,VALID,0,VALID,24.4345,VALID,122,VALID,1.23086,
2012-08-28, 01:22:04,VALID,1010.31,VALID,0,VALID,104,VALID,0,VALID,24.4345,VALID,116,VALID,1.09336,
2012-08-28, 01:23:04,VALID,1010.3,VALID,0,VALID,104,VALID,0,VALID,24.454,VALID,96,VALID,1.08516,
2012-08-28, 01:24:04,VALID,1010.28,VALID,0,VALID,104,VALID,0,VALID,24.4345,VALID,110,VALID,0.942187,
2012-08-28, 01:25:04,VALID,1010.25,VALID,0,VALID,104,VALID,0,VALID,24.454,VALID,103,VALID,0.841797,
2012-08-28, 01:26:04,VALID,1010.24,VALID,0,VALID,104,VALID,0,VALID,24.4345,VALID,85,VALID,1.43164,
2012-08-28, 01:27:04,VALID,1010.27,VALID,0,VALID,104,VALID,0,VALID,24.454,VALID,109,VALID,1.11875,
2012-08-28, 01:28:04,VALID,1010.23,VALID,0,VALID,104,VALID,0,VALID,24.454,VALID,145,VALID,0.991016,
2012-08-28, 01:29:04,VALID,1010.25,VALID,0,VALID,104,VALID,0,VALID,24.4345,VALID,116,VALID,0.944531,
2012-08-28, 01:30:04,VALID,1010.22,VALID,0,VALID,104,VALID,0,VALID,24.4345,VALID,111,VALID,1.07305,
2012-08-28, 01:31:04,VALID,1010.24,VALID,0,VALID,104,VALID,0,VALID,24.415,VALID,109,VALID,1.08711,
2012-08-28, 01:32:04,VALID,1010.25,VALID,0,VALID,104,VALID,0,VALID,24.4345,VALID,119,VALID,1.09687,
2012-08-28, 01:33:04,VALID,1010.24,VALID,0,VALID,104,VALID,0,VALID,24.4345,VALID,138,VALID,1.83281,
2012-08-28, 01:34:04,VALID,1010.23,VALID,0,VALID,104,VALID,0,VALID,24.4345,VALID,111,VALID,0.452734,
2012-08-28, 01:35:04,VALID,1010.21,VALID,0,VALID,104,VALID,0,VALID,24.4345,VALID,98,VALID,0,
2012-08-28, 01:36:04,VALID,1010.23,VALID,0,VALID,104,VALID,0,VALID,24.415,VALID,87,VALID,0,
2012-08-28, 01:37:04,VALID,1010.22,VALID,0,VALID,104,VALID,0,VALID,24.415,VALID,103,VALID,0.631641,
2012-08-28, 01:38:04,VALID,1010.21,VALID,0,VALID,104,VALID,0,VALID,24.3956,VALID,135,VALID,0.802734,
2012-08-28, 01:39:04,VALID,1010.23,VALID,0,VALID,104,VALID,0,VALID,24.3956,VALID,89,VALID,0.746875,
2012-08-28, 01:40:04,VALID,1010.23,VALID,0,VALID,104,VALID,0,VALID,24.3761,VALID,98,VALID,0.888672,
2012-08-28, 01:41:04,VALID,1010.21,VALID,0,VALID,104,VALID,0,VALID,24.3761,VALID,108,VALID,0.998438,
2012-08-28, 01:42:04,VALID,1010.2,VALID,0,VALID,104,VALID,0,VALID,24.3779,VALID,121,VALID,1.17656,
2012-08-28, 01:43:04,VALID,1010.2,VALID,0,VALID,104,VALID,0,VALID,24.3566,VALID,135,VALID,0.508984,
2012-08-28, 01:44:04,VALID,1010.2,VALID,0,VALID,104,VALID,0,VALID,24.3371,VALID,108,VALID,1.23359,
2012-08-28, 01:45:04,VALID,1010.22,VALID,0,VALID,104,VALID,0,VALID,24.3371,VALID,100,VALID,0.713281,
2012-08-28, 01:46:04,VALID,1010.24,VALID,0,VALID,104,VALID,0,VALID,24.3566,VALID,100,VALID,0.337109,
2012-08-28, 01:47:04,VALID,1010.23,VALID,0,VALID,104,VALID,0,VALID,24.3371,VALID,109,VALID,1.11797,
2012-08-28, 01:48:04,VALID,1010.23,VALID,0,VALID,104,VALID,0,VALID,24.3371,VALID,94,VALID,0.907031,
2012-08-28, 01:49:04,VALID,1010.25,VALID,0,VALID,104,VALID,0,VALID,24.3566,VALID,88,VALID,0.803125,
2012-08-28, 01:50:04,VALID,1010.26,VALID,0,VALID,104,VALID,0,VALID,24.3371,VALID,128,VALID,1.42617,
2012-08-28, 01:51:04,VALID,1010.24,VALID,0,VALID,104,VALID,0,VALID,24.3584,VALID,96,VALID,0.990234,
2012-08-28, 01:52:04,VALID,1010.24,VALID,0,VALID,104,VALID,0,VALID,24.3566,VALID,84,VALID,0.534766,
2012-08-28, 01:53:04,VALID,1010.24,VALID,0,VALID,104,VALID,0,VALID,24.3371,VALID,126,VALID,1.21406,
2012-08-28, 01:54:04,VALID,1010.21,VALID,0,VALID,104,VALID,0,VALID,24.3371,VALID,99,VALID,0.874219,
2012-08-28, 01:55:04,VALID,1010.23,VALID,0,VALID,104,VALID,0,VALID,24.3371,VALID,94,VALID,1.38984,
2012-08-28, 01:56:04,VALID,1010.23,VALID,0,VALID,104,VALID,0,VALID,24.3371,VALID,117,VALID,1.36133,
2012-08-28, 01:57:04,VALID,1010.26,VALID,0,VALID,104,VALID,0,VALID,24.3371,VALID,106,VALID,0.903125,
2012-08-28, 01:58:04,VALID,1010.26,VALID,0,VALID,104,VALID,0,VALID,24.3176,VALID,78,VALID,1.07344,
2012-08-28, 01:59:04,VALID,1010.27,VALID,0,VALID,104,VALID,0,VALID,24.3371,VALID,116,VALID,1.23867,
2012-08-28, 02:00:04,VALID,1010.24,VALID,0,VALID,104,VALID,0,VALID,24.3371,VALID,117,VALID,1.26367,
2012-08-28, 02:01:04,VALID,1010.27,VALID,0,VALID,104,VALID,0,VALID,24.3371,VALID,121,VALID,1.12969,
2012-08-28, 02:02:04,VALID,1010.28,VALID,0,VALID,104,VALID,0,VALID,24.3371,VALID,79,VALID,1.06875,
2012-08-28, 02:03:04,VALID,1010.3,VALID,0,VALID,104,VALID,0,VALID,24.3371,VALID,111,VALID,1.47148,
2012-08-28, 02:04:04,VALID,1010.31,VALID,0,VALID,104,VALID,0,VALID,24.3389,VALID,111,VALID,1.25859,
2012-08-28, 02:05:04,VALID,1010.28,VALID,0,VALID,104,VALID,0,VALID,24.3176,VALID,123,VALID,1.50859,
2012-08-28, 02:06:04,VALID,1010.29,VALID,0,VALID,104,VALID,0,VALID,24.3176,VALID,123,VALID,1.70273,
2012-08-28, 02:07:04,VALID,1010.35,VALID,0,VALID,104,VALID,0,VALID,24.3371,VALID,116,VALID,0.920703,
2012-08-28, 02:08:04,VALID,1010.35,VALID,0,VALID,104,VALID,0,VALID,24.3371,VALID,139,VALID,1.35352,
2012-08-28, 02:09:04,VALID,1010.32,VALID,0,VALID,104,VALID,0,VALID,24.2981,VALID,89,VALID,1.4332,
2012-08-28, 02:10:04,VALID,1010.36,VALID,0,VALID,104,VALID,0,VALID,24.2981,VALID,124,VALID,1.76094,
2012-08-28, 02:11:04,VALID,1010.38,VALID,0,VALID,104,VALID,0,VALID,24.3194,VALID,120,VALID,0.832031,
2012-08-28, 02:12:04,VALID,1010.41,VALID,0,VALID,104,VALID,0,VALID,24.2981,VALID,115,VALID,1.48711,
2012-08-28, 02:13:04,VALID,1010.38,VALID,0,VALID,104,VALID,0,VALID,24.2981,VALID,122,VALID,1.40742,
2012-08-28, 02:14:04,VALID,1010.37,VALID,0,VALID,104,VALID,0,VALID,24.3,VALID,119,VALID,0.677344,
2012-08-28, 02:15:04,VALID,1010.38,VALID,0,VALID,104,VALID,0,VALID,24.3,VALID,128,VALID,0.930078,
2012-08-28, 02:16:04,VALID,1010.42,VALID,0,VALID,104,VALID,0,VALID,24.2786,VALID,113,VALID,0.966016,
2012-08-28, 02:17:04,VALID,1010.4,VALID,0,VALID,104,VALID,0,VALID,24.2591,VALID,105,VALID,1.68008,
2012-08-28, 02:18:04,VALID,1010.4,VALID,0,VALID,104,VALID,0,VALID,24.2591,VALID,114,VALID,1.33477,
2012-08-28, 02:19:04,VALID,1010.42,VALID,0,VALID,104,VALID,0,VALID,24.2591,VALID,122,VALID,1.66094,
2012-08-28, 02:20:04,VALID,1010.38,VALID,0,VALID,104,VALID,0,VALID,24.2591,VALID,113,VALID,1.11445,
2012-08-28, 02:21:04,VALID,1010.4,VALID,0,VALID,104,VALID,0,VALID,24.2591,VALID,81,VALID,1.02188,
2012-08-28, 02:22:04,VALID,1010.4,VALID,0,VALID,104,VALID,0,VALID,24.2396,VALID,125,VALID,0.639453,
2012-08-28, 02:23:04,VALID,1010.4,VALID,0,VALID,104,VALID,0,VALID,24.2396,VALID,116,VALID,0.683984,
2012-08-28, 02:24:04,VALID,1010.41,VALID,0,VALID,104,VALID,0,VALID,24.2415,VALID,107,VALID,0.539453,
2012-08-28, 02:25:04,VALID,1010.42,VALID,0,VALID,104,VALID,0,VALID,24.1988,VALID,119,VALID,1.57734,
2012-08-28, 02:26:04,VALID,1010.42,VALID,0,VALID,104,VALID,0,VALID,24.2007,VALID,109,VALID,1.10039,
2012-08-28, 02:27:04,VALID,1010.41,VALID,0.5,VALID,104,VALID,0,VALID,24.2007,VALID,124,VALID,1.20039,
2012-08-28, 02:28:04,VALID,1010.39,VALID,0,VALID,104,VALID,0,VALID,24.2007,VALID,108,VALID,1.16094,
2012-08-28, 02:29:04,VALID,1010.41,VALID,0,VALID,104,VALID,0,VALID,24.2007,VALID,95,VALID,0.44375,
2012-08-28, 02:30:04,VALID,1010.41,VALID,0,VALID,104,VALID,0,VALID,24.1812,VALID,125,VALID,1.51914,
2012-08-28, 02:31:04,VALID,1010.41,VALID,0,VALID,104,VALID,0,VALID,24.1812,VALID,113,VALID,1.97969,
2012-08-28, 02:32:04,VALID,1010.43,VALID,0,VALID,104,VALID,0,VALID,24.2025,VALID,107,VALID,0.975391,
2012-08-28, 02:33:04,VALID,1010.42,VALID,0,VALID,104,VALID,0,VALID,24.1812,VALID,120,VALID,0.698438,
2012-08-28, 02:34:04,VALID,1010.42,VALID,0,VALID,104,VALID,0,VALID,24.1812,VALID,137,VALID,1.36953,
2012-08-28, 02:35:04,VALID,1010.43,VALID,0,VALID,104,VALID,0,VALID,24.1617,VALID,139,VALID,1.66562,
2012-08-28, 02:36:04,VALID,1010.45,VALID,0,VALID,104,VALID,0,VALID,24.1617,VALID,125,VALID,0.627734,
2012-08-28, 02:37:04,VALID,1010.42,VALID,0,VALID,104,VALID,0,VALID,24.1617,VALID,111,VALID,1.3543,
2012-08-28, 02:38:04,VALID,1010.43,VALID,0,VALID,104,VALID,0,VALID,24.1422,VALID,112,VALID,1.07461,
2012-08-28, 02:39:04,VALID,1010.44,VALID,0,VALID,104,VALID,0,VALID,24.1227,VALID,115,VALID,1.02852,
2012-08-28, 02:40:04,VALID,1010.43,VALID,0,VALID,104,VALID,0,VALID,24.1227,VALID,109,VALID,0.657031,
2012-08-28, 02:41:04,VALID,1010.47,VALID,0,VALID,104,VALID,0,VALID,24.1227,VALID,108,VALID,1.25312,
2012-08-28, 02:42:04,VALID,1010.46,VALID,0,VALID,104,VALID,0,VALID,24.1245,VALID,140,VALID,0.884375,
2012-08-28, 02:43:04,VALID,1010.48,VALID,0,VALID,104,VALID,0,VALID,24.1245,VALID,101,VALID,0.445313,
2012-08-28, 02:44:04,VALID,1010.53,VALID,0,VALID,104,VALID,0,VALID,24.1032,VALID,87,VALID,1.30859,
2012-08-28, 02:45:04,VALID,1010.5,VALID,0,VALID,104,VALID,0,VALID,24.1032,VALID,92,VALID,1.04297,
2012-08-28, 02:46:04,VALID,1010.52,VALID,0,VALID,104,VALID,0,VALID,24.0837,VALID,121,VALID,0.910937,
2012-08-28, 02:47:04,VALID,1010.52,VALID,0,VALID,104,VALID,0,VALID,24.0837,VALID,77,VALID,0.907812,
2012-08-28, 02:48:04,VALID,1010.54,VALID,0,VALID,104,VALID,0,VALID,24.0856,VALID,114,VALID,0.882813,
2012-08-28, 02:49:04,VALID,1010.54,VALID,0,VALID,104,VALID,0,VALID,24.0856,VALID,89,VALID,0.708984,
2012-08-28, 02:50:04,VALID,1010.57,VALID,0,VALID,104,VALID,0,VALID,24.0448,VALID,90,VALID,1.08164,
2012-08-28, 02:51:04,VALID,1010.58,VALID,0,VALID,104,VALID,0,VALID,24.0643,VALID,101,VALID,1.18633,
2012-08-28, 02:52:04,VALID,1010.61,VALID,0,VALID,104,VALID,0,VALID,24.0448,VALID,79,VALID,1.18203,
2012-08-28, 02:53:04,VALID,1010.58,VALID,0,VALID,104,VALID,0,VALID,24.0448,VALID,105,VALID,1.27148,
2012-08-28, 02:54:04,VALID,1010.61,VALID,0.5,VALID,104,VALID,0,VALID,24.0448,VALID,87,VALID,0.810547,
2012-08-28, 02:55:04,VALID,1010.61,VALID,0,VALID,104,VALID,0,VALID,24.0448,VALID,83,VALID,1.04297,
2012-08-28, 02:56:04,VALID,1010.62,VALID,0,VALID,104,VALID,0,VALID,24.0253,VALID,95,VALID,1.13555,
2012-08-28, 02:57:04,VALID,1010.62,VALID,0,VALID,104,VALID,0,VALID,24.0253,VALID,93,VALID,0.665234,
2012-08-28, 02:58:04,VALID,1010.62,VALID,0,VALID,104,VALID,0,VALID,24.0253,VALID,98,VALID,1.325,
2012-08-28, 02:59:04,VALID,1010.62,VALID,0,VALID,104,VALID,0,VALID,24.0253,VALID,76,VALID,0.607422,
2012-08-28, 03:00:04,VALID,1010.64,VALID,0,VALID,104,VALID,0,VALID,24.0058,VALID,84,VALID,1.40937,
2012-08-28, 03:01:04,VALID,1010.65,VALID,0,VALID,104,VALID,0,VALID,24.0253,VALID,103,VALID,1.02773,
2012-08-28, 03:02:04,VALID,1010.67,VALID,0,VALID,104,VALID,0,VALID,24.0253,VALID,74,VALID,1.12656,
2012-08-28, 03:03:04,VALID,1010.7,VALID,0,VALID,104,VALID,0,VALID,24.0058,VALID,82,VALID,1.42852,
2012-08-28, 03:04:04,VALID,1010.67,VALID,0,VALID,104,VALID,0,VALID,24.0058,VALID,82,VALID,0.66875,
2012-08-28, 03:05:04,VALID,1010.71,VALID,0,VALID,104,VALID,0,VALID,24.0058,VALID,92,VALID,1.52969,
2012-08-28, 03:06:04,VALID,1010.72,VALID,0,VALID,104,VALID,0,VALID,23.9863,VALID,88,VALID,1.28203,
2012-08-28, 03:07:04,VALID,1010.75,VALID,0,VALID,104,VALID,0,VALID,24.0058,VALID,106,VALID,0.825781,
2012-08-28, 03:08:04,VALID,1010.74,VALID,0,VALID,104,VALID,0,VALID,24.0058,VALID,102,VALID,0.899609,
2012-08-28, 03:09:04,VALID,1010.72,VALID,0,VALID,104,VALID,0,VALID,23.9863,VALID,103,VALID,0.891406,
2012-08-28, 03:10:04,VALID,1010.76,VALID,0,VALID,104,VALID,0,VALID,23.9668,VALID,93,VALID,0.966406,
2012-08-28, 03:11:04,VALID,1010.74,VALID,0,VALID,104,VALID,0,VALID,23.9668,VALID,90,VALID,1.70039,
2012-08-28, 03:12:04,VALID,1010.74,VALID,0.5,VALID,104,VALID,0,VALID,23.9668,VALID,94,VALID,1.05781,
2012-08-28, 03:13:04,VALID,1010.72,VALID,0,VALID,104,VALID,0,VALID,23.9668,VALID,107,VALID,0.657812,
2012-08-28, 03:14:04,VALID,1010.7,VALID,0,VALID,104,VALID,0,VALID,23.9473,VALID,111,VALID,1.10977,
2012-08-28, 03:15:04,VALID,1010.71,VALID,0,VALID,104,VALID,0,VALID,23.9491,VALID,113,VALID,1.61719,
2012-08-28, 03:16:04,VALID,1010.7,VALID,0,VALID,104,VALID,0,VALID,23.9084,VALID,98,VALID,1.03867,
2012-08-28, 03:17:04,VALID,1010.71,VALID,0,VALID,104,VALID,0,VALID,23.8889,VALID,96,VALID,1.11953,
2012-08-28, 03:18:04,VALID,1010.7,VALID,0,VALID,104,VALID,0,VALID,23.8676,VALID,108,VALID,0.916797,
2012-08-28, 03:19:04,VALID,1010.67,VALID,0,VALID,104,VALID,0.112112,VALID,23.8694,VALID,131,VALID,1.01875,
2012-08-28, 03:20:04,VALID,1010.71,VALID,0,VALID,104,VALID,0,VALID,23.8481,VALID,100,VALID,0.694141,
2012-08-28, 03:21:04,VALID,1010.68,VALID,0,VALID,104,VALID,0,VALID,23.8499,VALID,107,VALID,1.13477,
2012-08-28, 03:22:04,VALID,1010.68,VALID,0,VALID,104,VALID,0,VALID,23.8499,VALID,119,VALID,0.473047,
2012-08-28, 03:23:04,VALID,1010.69,VALID,0,VALID,104,VALID,0,VALID,23.8499,VALID,110,VALID,0.840234,
2012-08-28, 03:24:04,VALID,1010.64,VALID,0,VALID,104,VALID,0,VALID,23.8304,VALID,102,VALID,0.435156,
2012-08-28, 03:25:04,VALID,1010.65,VALID,0,VALID,104,VALID,0,VALID,23.8304,VALID,133,VALID,0.894922,
2012-08-28, 03:26:04,VALID,1010.66,VALID,0,VALID,104,VALID,0,VALID,23.8304,VALID,91,VALID,1.06328,
2012-08-28, 03:27:04,VALID,1010.64,VALID,0,VALID,104,VALID,0,VALID,23.7914,VALID,121,VALID,1.41914,
2012-08-28, 03:28:04,VALID,1010.64,VALID,0,VALID,104,VALID,0,VALID,23.8109,VALID,104,VALID,1.63594,
2012-08-28, 03:29:04,VALID,1010.6,VALID,0,VALID,104,VALID,0,VALID,23.7896,VALID,122,VALID,1.54023,
2012-08-28, 03:30:04,VALID,1010.6,VALID,0.5,VALID,104,VALID,0,VALID,23.8304,VALID,122,VALID,1.04023,
2012-08-28, 03:31:04,VALID,1010.56,VALID,0,VALID,104,VALID,0,VALID,23.8109,VALID,116,VALID,1.32578,
2012-08-28, 03:32:04,VALID,1010.56,VALID,0,VALID,104,VALID,0.112112,VALID,23.7896,VALID,117,VALID,1.16484,
2012-08-28, 03:33:04,VALID,1010.56,VALID,0,VALID,104,VALID,0,VALID,23.8109,VALID,115,VALID,0.99375,
2012-08-28, 03:34:04,VALID,1010.56,VALID,0,VALID,104,VALID,0,VALID,23.7896,VALID,105,VALID,0.555469,
2012-08-28, 03:35:04,VALID,1010.56,VALID,0,VALID,104,VALID,0,VALID,23.7914,VALID,89,VALID,0.684766,
2012-08-28, 03:36:04,VALID,1010.54,VALID,0,VALID,104,VALID,0,VALID,23.7914,VALID,103,VALID,0.703516,
2012-08-28, 03:37:04,VALID,1010.53,VALID,0,VALID,104,VALID,0.112112,VALID,23.7914,VALID,101,VALID,0.883203,
2012-08-28, 03:38:04,VALID,1010.55,VALID,0,VALID,104,VALID,0,VALID,23.7701,VALID,101,VALID,0.925781,
2012-08-28, 03:39:04,VALID,1010.54,VALID,0,VALID,104,VALID,0,VALID,23.7507,VALID,93,VALID,0.809375,
2012-08-28, 03:40:04,VALID,1010.51,VALID,0,VALID,104,VALID,0,VALID,23.772,VALID,105,VALID,0.719531,
2012-08-28, 03:41:04,VALID,1010.51,VALID,0,VALID,104,VALID,0,VALID,23.7507,VALID,129,VALID,0.686328,
2012-08-28, 03:42:04,VALID,1010.48,VALID,0,VALID,104,VALID,0.112112,VALID,23.772,VALID,112,VALID,0.823828,
2012-08-28, 03:43:04,VALID,1010.49,VALID,0,VALID,104,VALID,0.112112,VALID,23.772,VALID,95,VALID,0.544141,
2012-08-28, 03:44:04,VALID,1010.47,VALID,0,VALID,104,VALID,0.112112,VALID,23.7525,VALID,95,VALID,0.538281,
2012-08-28, 03:45:04,VALID,1010.46,VALID,0,VALID,104,VALID,0,VALID,23.733,VALID,122,VALID,0.563281,
2012-08-28, 03:46:04,VALID,1010.46,VALID,0,VALID,104,VALID,0,VALID,23.733,VALID,123,VALID,0.798828,
2012-08-28, 03:47:04,VALID,1010.46,VALID,0,VALID,104,VALID,0,VALID,23.733,VALID,123,VALID,0.906641,
2012-08-28, 03:48:04,VALID,1010.48,VALID,0,VALID,104,VALID,0,VALID,23.733,VALID,123,VALID,0.634375,
2012-08-28, 03:49:04,VALID,1010.44,VALID,0,VALID,104,VALID,0,VALID,23.7135,VALID,113,VALID,0,
2012-08-28, 03:50:04,VALID,1010.43,VALID,0,VALID,104,VALID,0.112112,VALID,23.6922,VALID,121,VALID,1.07422,
2012-08-28, 03:51:04,VALID,1010.44,VALID,0,VALID,104,VALID,0,VALID,23.7135,VALID,125,VALID,1.4375,
2012-08-28, 03:52:04,VALID,1010.42,VALID,0,VALID,104,VALID,0,VALID,23.694,VALID,120,VALID,1.54453,
2012-08-28, 03:53:04,VALID,1010.45,VALID,0,VALID,104,VALID,0,VALID,23.7135,VALID,90,VALID,0.918359,